COSMOS 2491 DEB, 57570

Orbit data source: Space-Track

COSMOS 2491 DEB, 57570 is space debris in LEO originally from a launch on Wed, 25 Dec 2013 UTC launched from the Plesetsk Missile And Space Complex (PKMTR). Debris objects in space refer to the collection of defunct objects orbiting the Earth. Examples of debris include non-operational satellites, rocket bodies, and fragments generated from explosions, collisions, or faulty payload assembly.

Loading next visibility...
Identifier
57570, 2013-076BH
Orbit
LEO
Country
Flag of CISCIS
Related business
Manufacturer
TsNIIKhM
Mission
Spacecraft
Bus & Motor
Unknown
Mass
Unknown
Launch date (UTC)
2013-12-25 (12 years ago)
Launch vehicle
Unknown
Launch site
Plesetsk Missile And Space Complex (PKMTR)
Object type
Payload
Rocket body
Debris
Shape & HBR
Unknown shape, 0.1 m
Radar Cross Section
Small (<0.1 m²)

Expand to show TLE details & history
Last TLE update: 3 days ago

TLE from 3 days ago
0 COSMOS 2491 DEB
1 57570U 13076BH  25309.67872086  .00001117  00000-0  67507-2 0  9991
2 57570  82.4556 292.4081 0147476  35.6111 325.4707 12.52729827113848
Epoch: 2025-11-05T16:17Z
TLE epoch observation values (Epoch: 2025-11-05T16:17:21.482Z)
Latitude
0.00003°
Longitude
2.92066°
Altitude
1,361.205 km
Speed
7.221 km/s
True Right ascension
19h 29m 37s
True Declination
0° 00' 00"
Sunlit
Object was in daylight at epoch
Visualization orbit readout
Latitude
Unknown
Longitude
Unknown
Altitude
Unknown
Speed
Unknown
Apparent Right ascension
Unknown
Apparent Declination
Unknown
Sunlit
N/A
Visualization observer readout
Local Sidereal Time
05:24:53
Azimuth
Unknown
Elevation
Unknown
Doppler factor
Unknown
Orbital elements
Apogee altitude
1,565.888 km
Perigee altitude
1,334.983 km
Semi-major axis
7,828.573 km
Eccentricity
0.01475
Inclination
82.4556°
RAAN
292.4081°
Arg. of periapsis
35.6111°
True anomaly
324.49807°
Mean anomaly
325.4707°
Eccentric anomaly
324.98587°
Mean motion
3.13342 °/min
Orbital period
114.89 mins
BSTAR
0.0067507
Loading maneuver chart data...
Computing Atmospheric mass density...
Loading historical data...
Loading historical data...
Loading historical data...
Loading historical data...
Loading historical data...
Loading historical data...
Loading historical data...

Documentation

Showing up to 5 results
|